Regional Weather Roundup
Issued by NWS

Home | Current Version | Previous Version | Graphics & Text | Print | Product List | Glossary On
Versions: 1 2 3 4 5 6 7 8 9 10 11 12 13 14 15 16 17 18 19 20 21 22 23 24 25 26 27
000
ASUS45 KSLC 221310
RWRUT

UTAH REGIONAL WEATHER ROUNDUP
NATIONAL WEATHER SERVICE SALT LAKE CITY UT
700 AM MDT FRI SEP 22 2017

UTZ001>011-023>025-221400-

NORTHERN UTAH

CITY           SKY/WX    TMP DP  RH WIND       PRES   REMARKS
BRIGHAM CITY   CLOUDY    42  38  85 W3        29.86R
HILL AFB       CLOUDY    40  39  96 SW6       29.85S
LOGAN          CLOUDY    42  39  89 SW5       29.84S
OGDEN          CLOUDY    41  39  93 SW5       29.85S
SALT LAKE CITY CLOUDY    45  39  79 CALM      29.85R
TOOELE VALLEY  CLOUDY    41  39  93 CALM      29.87R
WENDOVER       CLOUDY    40  36  86 W10       29.88S WCI  33
HEBER CITY     CLOUDY    37  34  87 CALM      29.83S
WEST JORDAN    CLOUDY    42  42 100 CALM      29.86R

$$

UTZ011>015-024>027-221400-

CENTRAL/NORTHEAST UTAH

CITY           SKY/WX    TMP DP  RH WIND       PRES   REMARKS
PROVO AIRPORT  CLOUDY    42  40  92 S5        29.87S
MOAB/CANYONLAN MOCLDY    68  36  30 SW14      29.72R
DELTA          CLOUDY    37  36  93 CALM      29.87S
PRICE          CLOUDY    52  34  50 CALM      29.79R
RICHFIELD        N/A     41  41 100 CALM      29.87S
ROOSEVELT      CLEAR     46  37  71 CALM      29.81R
VERNAL         PTCLDY    48  46  93 SW6       29.79R

$$

UTZ013>016-019>022-027-221400-

SOUTHERN UTAH

CITY           SKY/WX    TMP DP  RH WIND       PRES   REMARKS
BRYCE CANYON   PTCLDY    43  33  68 S12       29.88S
CEDAR CITY     PTCLDY    38  37  97 CALM      29.84S
MILFORD        CLOUDY    39  38  96 S5        29.84F
ST GEORGE      PTSUNNY   52  38  58 S7        29.79S
HANKSVILLE     CLEAR     61  32  33 SW7       29.78R
KANAB          CLEAR     45  34  65 CALM      29.87R
BLANDING         N/A     53  32  45 S9        29.95S

$$

REGIONAL REPORTS     COLORADO/ARIZONA

CITY           SKY/WX    TMP DP  RH WIND       PRES   REMARKS
CRAIG, CO      CLEAR     58  25  28 SW7       29.82S
GRAND JUNCTION CLOUDY    67  34  29 S12G21    29.78R
RIFLE, CO      LGT RAIN  63  41  44 S16G25    29.83R
MONTROSE, CO   MOCLDY    63  40  42 S21G31    29.87R
CORTEZ, CO     CLOUDY    63  38  39 S10       29.91S
PAGE, AZ       PTCLDY    61  41  47 MISG      29.77R
GRAND CANYON   MOCLDY    49  39  68 SW9       29.90S
KINGMAN, AZ    CLEAR     45  38  76 SW6       29.80R
FLAGSTAFF, AZ  PTCLDY    44  36  73 SW3       29.94R

$$

REGIONAL REPORTS    NEVADA/IDAHO/WYOMING

CITY           SKY/WX    TMP DP  RH WIND       PRES   REMARKS
LAS VEGAS, NV  CLEAR     58  27  30 SW3       29.78S
ELY, NY        CLOUDY    31  30  96 S7        29.87F WCI  24
ELKO, NV       CLOUDY    38  35  89 SW7       29.88R WCI  33
POCATELLO, ID  LGT RAIN  40  38  93 S8        29.86R WCI  34
BURLEY, ID     LGT RAIN  40  35  83 SW13      29.86R WCI  32
FORT BRIDGER,  CLOUDY    39  39 100 S7        29.87R WCI  34
EVANSTON, WY   FOG       33  33 100 S6        29.83S VSB 1/2 WCI  28
ROCK SPRINGS,  LGT RAIN  37  36  96 E7        29.89R WCI  32
KEMMERER, WY     N/A     36  34  93 W6        29.84R WCI  31

$$




USA.gov is the U.S. government's official web portal to all federal, state and local government web resources and services.